TimeEST,TemperatureF,Dew PointF,Humidity,Sea Level PressureIn,VisibilityMPH,Wind Direction,Wind SpeedMPH,Gust SpeedMPH,PrecipitationIn,Events,Conditions,WindDirDegrees,DateUTC
12:53 AM,7.0,-2.0,67,30.48,9.0,NNW,8.1,-,0.00,,Overcast,330,2013-01-25 05:53:00
1:53 AM,7.0,-2.0,67,30.48,10.0,NNW,6.9,-,N/A,,Overcast,340,2013-01-25 06:53:00
2:53 AM,5.0,-5.1,63,30.48,10.0,North,6.9,-,N/A,,Overcast,360,2013-01-25 07:53:00
3:53 AM,3.0,-7.1,63,30.48,10.0,NNW,8.1,-,N/A,,Overcast,340,2013-01-25 08:53:00
4:53 AM,1.9,-7.1,66,30.47,10.0,NNW,5.8,-,N/A,,Overcast,330,2013-01-25 09:53:00
5:53 AM,1.9,-8.0,63,30.45,10.0,Calm,Calm,-,N/A,,Overcast,0,2013-01-25 10:53:00
6:53 AM,1.9,-7.1,66,30.46,10.0,Calm,Calm,-,N/A,,Overcast,0,2013-01-25 11:53:00
7:42 AM,1.9,-6.0,69,30.42,10.0,Calm,Calm,-,N/A,,Scattered Clouds,0,2013-01-25 12:42:00
7:53 AM,1.9,-6.0,69,30.46,10.0,Calm,Calm,-,N/A,,Scattered Clouds,0,2013-01-25 12:53:00
8:02 AM,1.9,-6.0,69,30.42,10.0,Calm,Calm,-,N/A,,Mostly Cloudy,0,2013-01-25 13:02:00
8:29 AM,1.9,-6.0,69,30.42,10.0,Calm,Calm,-,N/A,,Scattered Clouds,0,2013-01-25 13:29:00
8:53 AM,1.9,-7.1,66,30.45,10.0,East,3.5,-,N/A,,Scattered Clouds,90,2013-01-25 13:53:00
9:53 AM,3.0,-6.0,66,30.43,10.0,East,3.5,-,N/A,,Clear,100,2013-01-25 14:53:00
10:53 AM,6.1,-5.1,60,30.39,10.0,Calm,Calm,-,N/A,,Clear,0,2013-01-25 15:53:00
11:53 AM,8.1,-2.9,61,30.34,10.0,ESE,3.5,-,N/A,,Clear,120,2013-01-25 16:53:00
12:53 PM,10.0,-0.9,61,30.29,10.0,Calm,Calm,-,N/A,,Clear,0,2013-01-25 17:53:00
1:53 PM,10.0,-0.9,61,30.26,10.0,Calm,Calm,-,N/A,,Scattered Clouds,0,2013-01-25 18:53:00
2:53 PM,12.0,-0.0,59,30.24,10.0,WNW,3.5,-,N/A,,Overcast,300,2013-01-25 19:53:00
3:53 PM,12.9,-2.0,51,30.21,10.0,SE,3.5,-,N/A,,Overcast,130,2013-01-25 20:53:00
4:53 PM,12.9,-0.9,54,30.18,10.0,Calm,Calm,-,N/A,,Overcast,0,2013-01-25 21:53:00
5:53 PM,12.9,-0.0,56,30.16,8.0,ENE,3.5,-,0.00,Snow,Light Snow,70,2013-01-25 22:53:00
6:29 PM,10.9,3.9,73,30.13,2.5,Calm,Calm,-,0.00,Snow,Light Snow,0,2013-01-25 23:29:00
6:53 PM,10.9,6.1,81,30.15,1.5,Calm,Calm,-,0.00,Snow,Light Snow,0,2013-01-25 23:53:00
7:42 PM,10.9,7.0,84,30.11,2.5,Calm,Calm,-,0.01,Snow,Light Snow,0,2013-01-26 00:42:00
7:53 PM,10.9,7.0,84,30.14,2.0,Calm,Calm,-,0.01,Snow,Light Snow,0,2013-01-26 00:53:00
8:39 PM,10.9,7.0,84,30.10,3.0,Calm,Calm,-,0.00,Snow,Light Snow,0,2013-01-26 01:39:00
8:53 PM,10.9,8.1,88,30.13,3.0,Calm,Calm,-,0.00,Snow,Light Snow,0,2013-01-26 01:53:00
9:04 PM,10.9,7.0,84,30.10,2.5,Calm,Calm,-,0.00,Snow,Light Snow,0,2013-01-26 02:04:00
9:24 PM,10.9,7.0,84,30.11,4.0,Calm,Calm,-,0.00,Snow,Light Snow,0,2013-01-26 02:24:00
9:53 PM,10.9,7.0,84,30.13,4.0,Calm,Calm,-,0.00,Snow,Light Snow,0,2013-01-26 02:53:00
10:53 PM,10.9,7.0,84,30.13,4.0,NNW,3.5,-,0.00,Snow,Light Snow,330,2013-01-26 03:53:00
11:53 PM,10.0,6.1,84,30.13,8.0,NW,3.5,-,0.00,,Overcast,320,2013-01-26 04:53:00